OBJECT H

Satellite information

Favourite Embed

Satellite Type and Status

UNKNOWNIN ORBIT

Key statistics

Satellite OBJECT H at a glance.

Uptime

174

Days in orbit

Revolutions

≈ 15.2

Per day

Orbit

SSO

Sun Synchronous Orbit

Inclination

97.4

Latest

Satellite identification and parameters

Extended collection of information and parameters for OBJECT H.

Object identification

Identified? True

Debris? False

Object name: OBJECT H

International designator: 2025-052H

Object number (NORAD): 63217

Object ID (CCSDS): 63217

Country: TO BE DETERMINED/UNKNOWN (TBD)

Current information (Y/N): Y

RCS size: SMALL

Orbital parameters

Period: 94.598 minutes

Inclination: 97.4171 deg

SMA: 6877.268 km

Apoapsis: 502.911 km

Periapsis: 495.354 km

RAAN: 139.9028 deg

Eccentricy: 0.00054944

Argument of periapsis: 72.23 deg

Mean anomaly: 287.9535 deg

Mean motion: 15.22225091 rev/day

Mean motion (dot): 0.00017882 rev/day2

B* drag term: 0.00077952171 1/REarth

Two-line elements (TLE)

Creation date: Sept. 4, 2025, 10:13 a.m.

Reference frame: TEME

Reference center: EARTH

Epoch: Sept. 4, 2025, 4:28 a.m. UTC

TLE line 0: 0 OBJECT H

TLE line 1: 1 63217U 25052H 25247.18651003 .00017882 00000-0 77952-3 0 9996

TLE line 2: 2 63217 97.4171 139.9028 0005494 72.2300 287.9535 15.22225091 26419

Live tracking on map

Real-time ground track for satellite OBJECT H.

In-orbit conjunctions

There are no conjunctions computed for OBJECT H, at the moment. Check back to stay up to date, as we update our databases every day.

Go to all conjunctions

Associated space launch

Dedicated rideshare flight to a sun-synchronous orbit with dozens of small microsatellites and nanosatellites for commercial and government customers.

OBJECT H was lifted into orbit during the mission ‘Falcon 9 Block 5 | Transporter 13 (Dedicated SSO Rideshare)’, on board a Falcon 9 space rocket.

The launch took place on March 15, 2025, 6:43 a.m. from Space Launch Complex 4E.

For more information about the launch, click the button.

Launch to space Falcon 9 Block 5 | Transporter 13 (Dedicated SSO Rideshare)
Falcon 9 Block 5 | Transporter 13 (Dedicated SSO Rideshare)

Agency: SpaceX

Status: Launch Successful

Launch date: March 15, 2025, 6:43 a.m. UTC

Rocket: Falcon 9

Launch pad: Space Launch Complex 4E

Location: Vandenberg SFB, CA, USA

...

Latest news about this satellite

News about space launch
Varda Space reentry capsule lands in Australia, completes hypersonic research mission

W-3 focused on gathering data for military hypersonic research. The post Varda Space reentry capsule lands in Australia, completes hypersonic research mission appeared first on SpaceNews.

News about space launch
Intelligence and dual-use commercial satellites launch on Transporter-13

Among the 74 payloads on SpaceX’s Transporter-13 mission was a technology demonstrator from the National Reconnaissance Office The post Intelligence and dual-use commercial satellites launch on Transporter-13 appeared first on SpaceNews.

News about space launch
NASA’s EZIE Launches on Mission to Study Earth’s Electrojets

Under the nighttime California sky, NASA’s EZIE (Electrojet Zeeman Imaging Explorer) mission launched aboard a SpaceX Falcon 9 rocket at 11:43 p.m. PDT on March 14. Taking off from Vandenberg Space Force Base near Santa Barbara, the EZIE mission’s trio of...


Newsletter sign-up

Weekly statistics, charts and insights to help you stay on top of the space industry.